EW5770 Weather Reports


time (UTC)temp
F
wind
direction
speed
knots
gust
knots
rain 1hr
in
rain 24hr
in
rain mn
in
humidity
%
barometer
mb
20260906181224 80 0 0.0 0.0 0.00 0.00 0.00 71 1019.9
20260906180225 81 0 0.0 0.0 0.00 0.00 0.00 71 1019.9
20260906175216 81 0 0.0 0.0 0.00 0.00 0.00 71 1019.8
20260906174224 82 0 0.0 0.0 0.00 0.00 0.00 71 1019.8
20260906173215 83 0 0.0 0.0 0.00 0.00 0.00 70 1019.7
20260906171224 84 0 0.0 0.0 0.00 0.00 0.00 70 1019.7
20260906170223 85 0 0.0 0.0 0.00 0.00 0.00 68 1019.7
20260906165222 86 0 0.0 0.0 0.00 0.00 0.00 69 1019.5
20260906164222 86 0 0.0 0.0 0.00 0.00 0.00 69 1019.5
20260906163215 87 0 0.0 0.0 0.00 0.00 0.00 68 1019.5
20260906162222 87 0 0.0 0.0 0.00 0.00 0.00 67 1019.5
20260906160224 88 0 0.0 0.0 0.00 0.00 0.00 64 1019.3
20260906155219 88 0 0.0 0.0 0.00 0.00 0.00 62 1019.3
20260906153215 88 0 0.0 0.0 0.00 0.00 0.00 63 1019.4
20260906151223 87 223 0.0 0.9 0.00 0.00 0.00 66 1019.5
20260906144223 88 272 0.0 0.9 0.00 0.00 0.00 64 1019.3
20260906143216 88 251 0.0 0.9 0.00 0.00 0.00 63 1019.4
20260906142218 88 224 0.0 0.9 0.00 0.00 0.00 64 1019.4
20260906141215 88 251 0.0 0.9 0.00 0.00 0.00 64 1019.5
20260906140222 88 230 0.9 0.9 0.00 0.00 0.00 65 1019.5
20260906134222 87 227 0.0 0.9 0.00 0.00 0.00 67 1019.5
20260906133215 88 217 0.0 5.2 0.00 0.00 0.00 65 1019.6
20260906132222 88 246 0.0 1.7 0.00 0.00 0.00 65 1019.6
20260906131223 88 240 0.0 6.1 0.00 0.00 0.00 65 1019.6
20260906130224 89 243 0.0 0.9 0.00 0.00 0.00 64 1019.7
20260906125224 89 238 0.0 4.3 0.00 0.00 0.00 64 1019.7
20260906124223 88 217 0.0 0.9 0.00 0.00 0.00 65 1019.7
20260906123219 88 229 0.0 1.7 0.00 0.00 0.00 65 1019.7
20260906122222 88 235 0.0 0.9 0.00 0.00 0.00 65 1019.6
20260906121224 87 225 0.0 0.9 0.00 0.00 0.00 65 1019.7
20260906120225 88 236 0.0 0.9 0.00 0.00 0.00 64 1019.7
20260906115222 88 239 0.0 1.7 0.00 0.00 0.00 63 1019.8
20260906114223 90 0 0.0 0.0 0.00 0.00 0.00 47 1019.7
20260906113215 90 0 0.0 0.0 0.00 0.00 0.00 48 1019.6
20260906112222 89 40 0.0 2.6 0.00 0.00 0.00 50 1019.6
20260906111222 90 0 0.0 0.0 0.00 0.00 0.00 49 1019.7
20260906110224 89 241 0.0 0.9 0.00 0.00 0.00 51 1019.7
20260906105221 89 123 0.0 0.9 0.00 0.00 0.00 57 1019.8
20260906104222 88 0 0.0 0.0 0.00 0.00 0.00 54 1019.9
20260906103220 88 0 0.0 0.0 0.00 0.00 0.00 55 1019.8
20260906102223 88 221 0.0 0.9 0.00 0.00 0.00 54 1019.8
20260906100215 87 0 0.0 0.0 0.00 0.00 0.00 53 1020.0
20260906095222 87 0 0.0 0.0 0.00 0.00 0.00 54 1020.0
20260906094215 87 0 0.0 0.0 0.00 0.00 0.00 55 1020.0
20260906093215 86 0 0.0 0.0 0.00 0.00 0.00 56 1020.1
20260906092222 86 0 0.0 0.0 0.00 0.00 0.00 56 1020.2
20260906091223 86 48 0.0 1.7 0.00 0.00 0.00 57 1020.2
20260906090223 86 138 0.0 0.9 0.00 0.00 0.00 58 1020.2
20260906085224 85 0 0.0 0.0 0.00 0.00 0.00 62 1020.2
20260906084222 83 0 0.0 0.0 0.00 0.00 0.00 66 1020.2
20260906083222 82 0 0.0 0.0 0.00 0.00 0.00 69 1020.2
20260906082217 81 0 0.0 0.0 0.00 0.00 0.00 69 1020.1
20260906081222 79 0 0.0 0.0 0.00 0.00 0.00 72 1020.2
20260906080223 78 0 0.0 0.0 0.00 0.00 0.00 74 1020.1
20260906074222 76 0 0.0 0.0 0.00 0.00 0.00 78 1020.2
20260906073218 75 0 0.0 0.0 0.00 0.00 0.00 79 1020.2
20260906072223 74 0 0.0 0.0 0.00 0.00 0.00 80 1020.0
20260906071223 73 0 0.0 0.0 0.00 0.00 0.00 81 1020.0
20260906070222 73 0 0.0 0.0 0.00 0.00 0.00 82 1020.0
20260906065217 72 0 0.0 0.0 0.00 0.00 0.00 82 1020.1
20260906064221 72 0 0.0 0.0 0.00 0.00 0.00 84 1020.1
20260906063222 71 0 0.0 0.0 0.00 0.00 0.00 87 1020.1
20260906062217 71 0 0.0 0.0 0.00 0.00 0.00 85 1020.0
20260906060225 70 0 0.0 0.0 0.00 0.00 0.00 88 1019.9
20260906055223 70 0 0.0 0.0 0.00 0.00 0.00 87 1019.7
20260906054223 69 0 0.0 0.0 0.00 0.00 0.00 88 1019.7
20260906053221 69 0 0.0 0.0 0.00 0.00 0.00 90 1019.7
20260906052215 69 0 0.0 0.0 0.00 0.00 0.00 90 1019.5
20260906051218 69 0 0.0 0.0 0.00 0.00 0.00 90 1019.5
20260906050224 69 0 0.0 0.0 0.00 0.00 0.00 90 1019.3
20260906045220 69 0 0.0 0.0 0.00 0.00 0.00 90 1019.2
20260906044223 69 0 0.0 0.0 0.00 0.00 0.00 90 1019.1
20260906043221 69 0 0.0 0.0 0.00 0.00 0.00 90 1019.1
20260906042220 69 0 0.0 0.0 0.00 0.00 0.00 91 1019.0
20260906041224 69 0 0.0 0.0 0.00 0.00 0.00 92 1019.0
20260906040226 69 0 0.0 0.0 0.00 0.00 0.00 90 1018.9
20260906035221 70 0 0.0 0.0 0.00 0.00 0.00 90 1018.9
20260906033220 70 0 0.0 0.0 0.00 0.00 0.00 91 1018.6
20260906032224 70 0 0.0 0.0 0.00 0.00 0.00 89 1018.5
20260906030223 70 0 0.0 0.0 0.00 0.00 0.00 91 1018.5
20260906025221 70 0 0.0 0.0 0.00 0.00 0.00 91 1018.5
20260906024223 70 0 0.0 0.0 0.00 0.00 0.00 90 1018.5
20260906023221 70 0 0.0 0.0 0.00 0.00 0.00 90 1018.5
20260906022217 70 0 0.0 0.0 0.00 0.00 0.00 91 1018.5
20260906021225 70 0 0.0 0.0 0.00 0.00 0.00 92 1018.5
20260906015225 71 0 0.0 0.0 0.00 0.00 0.00 90 1018.6
20260906013216 71 0 0.0 0.0 0.00 0.00 0.00 91 1018.6
20260906011216 71 0 0.0 0.0 0.00 0.00 0.00 91 1018.6
20260906010226 71 0 0.0 0.0 0.00 0.00 0.00 91 1018.6
20260906005224 71 0 0.0 0.0 0.00 0.00 0.00 91 1018.5
20260906004224 71 0 0.0 0.0 0.00 0.00 0.00 90 1018.5
20260906003225 71 0 0.0 0.0 0.00 0.00 0.00 90 1018.5
20260906002215 72 0 0.0 0.0 0.00 0.00 0.00 91 1018.4
20260906001224 72 0 0.0 0.0 0.00 0.00 0.00 91 1018.5
20260906000226 72 0 0.0 0.0 0.00 0.00 0.00 91 1018.6
20260905234225 72 0 0.0 0.0 0.00 0.00 0.00 91 1018.6
20260905233225 72 0 0.0 0.0 0.00 0.00 0.00 92 1018.6
20260905231224 73 0 0.0 0.0 0.00 0.00 0.00 90 1018.8
20260905230226 73 0 0.0 0.0 0.00 0.00 0.00 90 1018.8
20260905224223 73 0 0.0 0.0 0.00 0.00 0.00 90 1018.8
20260905223222 73 0 0.0 0.0 0.00 0.00 0.00 90 1018.8
20260905222216 73 0 0.0 0.0 0.00 0.00 0.00 91 1018.8
20260905221222 73 0 0.0 0.0 0.00 0.00 0.00 90 1018.7
20260905215223 74 0 0.0 0.0 0.00 0.00 0.00 90 1018.6